SAS456 ESSA-EKCH

Flight info

Callsign SAS456
Flight time 1h 4m
Altitude 32000
Route PETEV N872 ELPAX DCT TOKSI N872 ERNOV
Aircraft MD82/M-SDFGIRWY/S

Departure

Time 2026-05-05 18:24
Airport Stockholm-Arlanda Airport (ESSA)

Arrival

Time 2026-05-05 19:29
Airport Copenhagen Kastrup Airport (EKCH)
Time Latitude Longitude Altitude Speed Heading
2026-05-05 18:00 59.65541 17.93988 117 ft 0 kts 76°
2026-05-05 18:13 59.65541 17.93987 116 ft 1 kts 76°
2026-05-05 18:13 59.65537 17.93952 112 ft 2 kts 76°
2026-05-05 18:14 59.65529 17.93912 111 ft 4 kts 51°
2026-05-05 18:14 59.65517 17.93895 112 ft 4 kts 354°
2026-05-05 18:14 59.65494 17.93905 113 ft 4 kts 346°
2026-05-05 18:14 59.65488 17.93908 113 ft 0 kts 346°
2026-05-05 18:16 59.65489 17.93908 113 ft 0 kts 346°
2026-05-05 18:16 59.65496 17.93904 113 ft 4 kts 346°
2026-05-05 18:17 59.65532 17.93886 110 ft 6 kts 346°
2026-05-05 18:17 59.65579 17.93856 114 ft 7 kts 327°
2026-05-05 18:17 59.65591 17.93757 114 ft 12 kts 258°
2026-05-05 18:17 59.65567 17.93577 113 ft 15 kts 255°
2026-05-05 18:18 59.65540 17.93369 112 ft 16 kts 256°
2026-05-05 18:18 59.65512 17.93146 111 ft 17 kts 256°
2026-05-05 18:18 59.65477 17.92916 112 ft 18 kts 251°
2026-05-05 18:18 59.65424 17.92686 112 ft 19 kts 236°
2026-05-05 18:19 59.65329 17.92495 111 ft 20 kts 215°
2026-05-05 18:19 59.65204 17.92385 112 ft 20 kts 193°
2026-05-05 18:19 59.65066 17.92334 112 ft 21 kts 190°
2026-05-05 18:19 59.64923 17.92283 112 ft 21 kts 190°
2026-05-05 18:20 59.64777 17.92230 112 ft 22 kts 190°
2026-05-05 18:20 59.64628 17.92176 113 ft 22 kts 190°
2026-05-05 18:20 59.64483 17.92124 114 ft 18 kts 191°
2026-05-05 18:20 59.64374 17.92084 115 ft 12 kts 191°
2026-05-05 18:21 59.64334 17.91974 112 ft 12 kts 263°
2026-05-05 18:21 59.64279 17.91883 114 ft 11 kts 191°
2026-05-05 18:21 59.64203 17.91856 115 ft 11 kts 190°
2026-05-05 18:21 59.64116 17.91825 115 ft 16 kts 190°
2026-05-05 18:22 59.64001 17.91784 113 ft 18 kts 190°
2026-05-05 18:22 59.63883 17.91739 110 ft 16 kts 193°
2026-05-05 18:22 59.63805 17.91650 108 ft 12 kts 219°
2026-05-05 18:22 59.63737 17.91526 108 ft 14 kts 237°
2026-05-05 18:23 59.63741 17.91377 110 ft 9 kts 309°
2026-05-05 18:23 59.63798 17.91348 110 ft 9 kts
2026-05-05 18:23 59.63890 17.91382 109 ft 23 kts 10°
2026-05-05 18:23 59.64253 17.91514 107 ft 87 kts 10°
2026-05-05 18:24 59.65062 17.91806 106 ft 148 kts 10°
2026-05-05 18:24 59.66193 17.92220 482 ft 170 kts 11°
2026-05-05 18:24 59.67305 17.92631 1556 ft 158 kts
2026-05-05 18:24 59.68367 17.93033 2178 ft 169 kts
2026-05-05 18:25 59.69515 17.92627 2839 ft 171 kts 325°
2026-05-05 18:25 59.70150 17.91643 3194 ft 183 kts 315°
2026-05-05 18:25 59.71244 17.88880 3932 ft 204 kts 295°
2026-05-05 18:25 59.71630 17.86089 4635 ft 217 kts 273°
2026-05-05 18:26 59.71428 17.83069 5460 ft 227 kts 252°
2026-05-05 18:26 59.70651 17.80313 6372 ft 234 kts 232°
2026-05-05 18:26 59.69436 17.78119 7261 ft 239 kts 222°
2026-05-05 18:26 59.68298 17.75712 7958 ft 246 kts 245°
2026-05-05 18:27 59.67688 17.72468 8538 ft 258 kts 252°
2026-05-05 18:27 59.66698 17.69466 9278 ft 270 kts 221°
2026-05-05 18:27 59.64990 17.67813 10080 ft 280 kts 201°
2026-05-05 18:27 59.63046 17.66715 10329 ft 302 kts 199°
2026-05-05 18:28 59.58713 17.64494 10904 ft 337 kts 197°
2026-05-05 18:28 59.56420 17.63416 11644 ft 339 kts 197°
2026-05-05 18:28 59.54114 17.62401 12380 ft 341 kts 197°
2026-05-05 18:29 59.51846 17.61111 13050 ft 337 kts 212°
2026-05-05 18:29 59.50028 17.58377 13777 ft 326 kts 235°
2026-05-05 18:29 59.48704 17.54815 14563 ft 320 kts 239°
2026-05-05 18:29 59.47374 17.51324 15383 ft 318 kts 236°
2026-05-05 18:30 59.45948 17.48011 16181 ft 317 kts 233°
2026-05-05 18:30 59.44460 17.44837 16966 ft 316 kts 232°
2026-05-05 18:30 59.42927 17.41756 17739 ft 315 kts 231°
2026-05-05 18:30 59.41363 17.38748 18432 ft 314 kts 231°
2026-05-05 18:31 59.39775 17.35778 18952 ft 317 kts 230°
2026-05-05 18:31 59.38154 17.32788 19379 ft 322 kts 230°
2026-05-05 18:31 59.36504 17.29771 19889 ft 326 kts 230°
2026-05-05 18:31 59.34838 17.26741 20423 ft 328 kts 230°
2026-05-05 18:32 59.33157 17.23690 20934 ft 331 kts 229°
2026-05-05 18:32 59.31458 17.20604 21337 ft 335 kts 229°
2026-05-05 18:32 59.29900 17.17762 21656 ft 341 kts 229°
2026-05-05 18:32 59.28178 17.14628 22162 ft 344 kts 229°
2026-05-05 18:33 59.26395 17.11399 22704 ft 346 kts 229°
2026-05-05 18:33 59.24644 17.08229 23162 ft 349 kts 229°
2026-05-05 18:33 59.22831 17.04947 23635 ft 352 kts 229°
2026-05-05 18:33 59.21027 17.01687 24041 ft 355 kts 229°
2026-05-05 18:34 59.19194 16.98521 24476 ft 358 kts 226°
2026-05-05 18:34 59.17277 16.95403 24924 ft 361 kts 226°
2026-05-05 18:34 59.16619 16.94355 25062 ft 362 kts 225°
2026-05-05 18:35 59.15152 16.92030 25358 ft 364 kts 225°
2026-05-05 18:35 59.13182 16.88913 25758 ft 366 kts 225°
2026-05-05 18:35 59.11203 16.85769 26199 ft 368 kts 226°
2026-05-05 18:36 59.09220 16.82601 26639 ft 370 kts 226°
2026-05-05 18:36 59.07227 16.79402 26957 ft 373 kts 226°
2026-05-05 18:36 59.05221 16.76159 27311 ft 377 kts 226°
2026-05-05 18:36 59.03198 16.72885 27706 ft 379 kts 226°
2026-05-05 18:37 59.01167 16.69600 28134 ft 381 kts 226°
2026-05-05 18:37 58.99124 16.66303 28545 ft 383 kts 226°
2026-05-05 18:37 58.97067 16.62985 28964 ft 385 kts 226°
2026-05-05 18:37 58.95014 16.59684 29561 ft 382 kts 226°
2026-05-05 18:38 58.92974 16.56416 30155 ft 379 kts 226°
2026-05-05 18:38 58.90949 16.53175 30585 ft 378 kts 226°
2026-05-05 18:38 58.88924 16.49935 30935 ft 378 kts 226°
2026-05-05 18:38 58.86886 16.46702 31269 ft 379 kts 225°
2026-05-05 18:39 58.84841 16.43471 31585 ft 380 kts 225°
2026-05-05 18:39 58.82792 16.40234 31712 ft 382 kts 225°
2026-05-05 18:39 58.80736 16.36980 31815 ft 383 kts 225°
2026-05-05 18:39 58.78670 16.33709 31863 ft 386 kts 225°
2026-05-05 18:40 58.74498 16.27114 31894 ft 388 kts 225°
2026-05-05 18:40 58.70327 16.20557 31903 ft 386 kts 225°
2026-05-05 18:41 58.66161 16.14056 31905 ft 385 kts 225°
2026-05-05 18:41 58.61998 16.07565 31906 ft 386 kts 225°
2026-05-05 18:42 58.57831 16.01071 31883 ft 386 kts 225°
2026-05-05 18:42 58.53680 15.94612 31899 ft 388 kts 225°
2026-05-05 18:43 58.49487 15.88114 31904 ft 388 kts 225°
2026-05-05 18:43 58.45263 15.81586 31906 ft 389 kts 225°
2026-05-05 18:44 58.41082 15.75139 31907 ft 389 kts 224°
2026-05-05 18:44 58.36874 15.68698 31916 ft 388 kts 224°
2026-05-05 18:45 58.32652 15.62299 31904 ft 389 kts 224°
2026-05-05 18:45 58.28409 15.55846 31914 ft 391 kts 224°
2026-05-05 18:46 58.24157 15.49385 31911 ft 391 kts 224°
2026-05-05 18:46 58.19913 15.42951 31913 ft 390 kts 224°
2026-05-05 18:47 58.15683 15.36551 31914 ft 389 kts 224°
2026-05-05 18:47 58.11451 15.30161 31910 ft 390 kts 224°
2026-05-05 18:48 58.07195 15.23760 31904 ft 393 kts 224°
2026-05-05 18:48 58.02890 15.17372 31911 ft 394 kts 224°
2026-05-05 18:49 57.98591 15.11005 31917 ft 392 kts 224°
2026-05-05 18:49 57.94311 15.04653 31916 ft 391 kts 224°
2026-05-05 18:50 57.90039 14.98312 31918 ft 391 kts 224°
2026-05-05 18:50 57.85758 14.91974 31917 ft 392 kts 224°
2026-05-05 18:51 57.82194 14.86714 31917 ft 392 kts 224°
2026-05-05 18:51 57.77901 14.80397 31915 ft 393 kts 224°
2026-05-05 18:52 57.73594 14.74105 31916 ft 393 kts 223°
2026-05-05 18:52 57.69273 14.67854 31917 ft 393 kts 223°
2026-05-05 18:53 57.64952 14.61598 31926 ft 393 kts 224°
2026-05-05 18:53 57.60638 14.55332 31896 ft 394 kts 223°
2026-05-05 18:54 57.56324 14.49075 31918 ft 396 kts 223°
2026-05-05 18:54 57.51961 14.42781 31912 ft 397 kts 223°
2026-05-05 18:55 57.47600 14.36513 31909 ft 395 kts 223°
2026-05-05 18:55 57.43254 14.30280 31911 ft 394 kts 223°
2026-05-05 18:56 57.38886 14.24105 31877 ft 395 kts 222°
2026-05-05 18:56 57.34495 14.17896 31897 ft 398 kts 223°
2026-05-05 18:57 57.30089 14.11647 31904 ft 399 kts 223°
2026-05-05 18:57 57.25695 14.05408 31923 ft 397 kts 223°
2026-05-05 18:58 57.21320 13.99203 31925 ft 396 kts 223°
2026-05-05 18:58 57.16941 13.93006 31929 ft 397 kts 223°
2026-05-05 18:59 57.12527 13.86843 31910 ft 400 kts 221°
2026-05-05 18:59 57.08038 13.80708 31926 ft 402 kts 221°
2026-05-05 19:00 57.03574 13.74548 31934 ft 400 kts 222°
2026-05-05 19:00 56.99146 13.68385 31935 ft 399 kts 222°
2026-05-05 19:01 56.94726 13.62230 31928 ft 400 kts 222°
2026-05-05 19:01 56.92481 13.59105 31402 ft 410 kts 222°
2026-05-05 19:01 56.90209 13.55953 30824 ft 409 kts 221°
2026-05-05 19:02 56.87937 13.52814 30239 ft 409 kts 221°
2026-05-05 19:02 56.85670 13.49694 29575 ft 408 kts 221°
2026-05-05 19:02 56.83402 13.46575 28871 ft 408 kts 221°
2026-05-05 19:02 56.81128 13.43450 28183 ft 411 kts 221°
2026-05-05 19:03 56.78833 13.40305 27520 ft 414 kts 221°
2026-05-05 19:03 56.76520 13.37144 26860 ft 417 kts 221°
2026-05-05 19:03 56.74196 13.33972 26183 ft 416 kts 221°
2026-05-05 19:03 56.71892 13.30836 25480 ft 411 kts 221°
2026-05-05 19:04 56.69616 13.27760 24825 ft 406 kts 221°
2026-05-05 19:04 56.67363 13.24723 24150 ft 401 kts 221°
2026-05-05 19:04 56.65164 13.21751 23552 ft 397 kts 221°
2026-05-05 19:04 56.62932 13.18731 22825 ft 393 kts 221°
2026-05-05 19:05 56.60754 13.15788 22138 ft 388 kts 221°
2026-05-05 19:05 56.58596 13.12875 21489 ft 385 kts 221°
2026-05-05 19:05 56.56484 13.10023 20848 ft 383 kts 221°
2026-05-05 19:05 56.54357 13.07152 20215 ft 380 kts 221°
2026-05-05 19:06 56.52244 13.04307 19583 ft 377 kts 221°
2026-05-05 19:06 56.50146 13.01489 18983 ft 374 kts 221°
2026-05-05 19:06 56.48060 12.98691 18362 ft 372 kts 221°
2026-05-05 19:06 56.45986 12.95912 17689 ft 369 kts 221°
2026-05-05 19:07 56.43931 12.93165 17029 ft 366 kts 221°
2026-05-05 19:07 56.41894 12.90440 16386 ft 364 kts 220°
2026-05-05 19:07 56.39858 12.87718 15787 ft 364 kts 220°
2026-05-05 19:07 56.37827 12.85010 15186 ft 362 kts 220°
2026-05-05 19:08 56.35802 12.82317 14592 ft 361 kts 220°
2026-05-05 19:08 56.33787 12.79642 14058 ft 357 kts 220°
2026-05-05 19:08 56.31826 12.77046 13918 ft 340 kts 220°
2026-05-05 19:08 56.29973 12.74605 13720 ft 322 kts 220°
2026-05-05 19:09 56.28180 12.72247 13098 ft 318 kts 220°
2026-05-05 19:09 56.26396 12.69887 12304 ft 319 kts 220°
2026-05-05 19:09 56.24598 12.67502 11430 ft 324 kts 219°
2026-05-05 19:09 56.22775 12.65082 10640 ft 326 kts 219°
2026-05-05 19:10 56.20978 12.62708 10271 ft 315 kts 219°
2026-05-05 19:10 56.19253 12.60446 10098 ft 299 kts 218°
2026-05-05 19:10 56.17609 12.58348 10011 ft 282 kts 213°
2026-05-05 19:10 56.15771 12.57282 9986 ft 282 kts 188°
2026-05-05 19:11 56.13793 12.57199 9967 ft 284 kts 183°
2026-05-05 19:11 56.11810 12.57246 9958 ft 285 kts 182°
2026-05-05 19:11 56.09823 12.57315 9946 ft 286 kts 182°
2026-05-05 19:11 56.07828 12.57407 9946 ft 286 kts 182°
2026-05-05 19:12 56.05837 12.57505 9947 ft 286 kts 182°
2026-05-05 19:12 56.03843 12.57588 9936 ft 287 kts 182°
2026-05-05 19:12 56.01850 12.57651 9940 ft 287 kts 183°
2026-05-05 19:12 55.99854 12.57694 9935 ft 287 kts 183°
2026-05-05 19:13 55.97858 12.57719 9936 ft 287 kts 183°
2026-05-05 19:13 55.95864 12.57734 9939 ft 287 kts 184°
2026-05-05 19:13 55.93868 12.57742 9933 ft 287 kts 184°
2026-05-05 19:13 55.91882 12.57747 9804 ft 282 kts 184°
2026-05-05 19:14 55.89929 12.57751 9285 ft 281 kts 183°
2026-05-05 19:14 55.87969 12.57743 8707 ft 282 kts 183°
2026-05-05 19:14 55.86072 12.57242 8205 ft 272 kts 200°
2026-05-05 19:14 55.84326 12.56142 7904 ft 261 kts 203°
2026-05-05 19:15 55.82656 12.55011 7575 ft 254 kts 203°
2026-05-05 19:15 55.81010 12.53876 7132 ft 254 kts 202°
2026-05-05 19:15 55.79367 12.52730 6669 ft 254 kts 202°
2026-05-05 19:15 55.77733 12.51602 6194 ft 256 kts 202°
2026-05-05 19:16 55.76055 12.50456 5770 ft 254 kts 201°
2026-05-05 19:16 55.74426 12.49372 5528 ft 250 kts 201°
2026-05-05 19:16 55.72783 12.48298 5453 ft 253 kts 200°
2026-05-05 19:16 55.71126 12.47225 5374 ft 254 kts 200°
2026-05-05 19:17 55.69475 12.46163 5291 ft 251 kts 200°
2026-05-05 19:17 55.67841 12.45119 5166 ft 247 kts 200°
2026-05-05 19:17 55.66236 12.44092 5036 ft 243 kts 199°
2026-05-05 19:17 55.64654 12.43079 4907 ft 241 kts 199°
2026-05-05 19:18 55.63065 12.42063 4777 ft 243 kts 199°
2026-05-05 19:18 55.61481 12.41057 4656 ft 242 kts 199°
2026-05-05 19:18 55.59917 12.39963 4513 ft 243 kts 211°
2026-05-05 19:18 55.58566 12.38171 4394 ft 243 kts 221°
2026-05-05 19:19 55.57302 12.36208 4274 ft 241 kts 222°
2026-05-05 19:19 55.56045 12.34240 4121 ft 240 kts 222°
2026-05-05 19:19 55.54811 12.32292 4053 ft 237 kts 223°
2026-05-05 19:19 55.53586 12.30347 4020 ft 237 kts 223°
2026-05-05 19:20 55.52349 12.28412 4006 ft 238 kts 221°
2026-05-05 19:20 55.51097 12.26493 4001 ft 238 kts 221°
2026-05-05 19:20 55.49841 12.24578 3997 ft 239 kts 221°
2026-05-05 19:20 55.48581 12.22659 3991 ft 239 kts 221°
2026-05-05 19:21 55.47270 12.20847 3987 ft 240 kts 207°
2026-05-05 19:21 55.45662 12.20224 3956 ft 239 kts 172°
2026-05-05 19:21 55.44136 12.21242 3923 ft 236 kts 142°
2026-05-05 19:21 55.42918 12.23152 3863 ft 234 kts 122°
2026-05-05 19:22 55.42363 12.25757 3813 ft 227 kts 89°
2026-05-05 19:22 55.42524 12.28492 3761 ft 221 kts 78°
2026-05-05 19:22 55.42795 12.31074 3686 ft 209 kts 77°
2026-05-05 19:22 55.43071 12.33573 3639 ft 208 kts 76°
2026-05-05 19:23 55.43443 12.35904 3581 ft 189 kts 56°
2026-05-05 19:23 55.44368 12.37458 3542 ft 183 kts 38°
2026-05-05 19:23 55.45321 12.38938 3495 ft 183 kts 42°
2026-05-05 19:23 55.46259 12.40466 3369 ft 184 kts 40°
2026-05-05 19:24 55.47225 12.41933 3227 ft 182 kts 39°
2026-05-05 19:24 55.48176 12.43351 2938 ft 176 kts 40°
2026-05-05 19:24 55.49085 12.44754 2669 ft 171 kts 40°
2026-05-05 19:24 55.49968 12.46104 2453 ft 167 kts 39°
2026-05-05 19:25 55.50843 12.47450 2240 ft 168 kts 39°
2026-05-05 19:25 55.51729 12.48814 2048 ft 171 kts 39°
2026-05-05 19:25 55.52636 12.50209 1829 ft 173 kts 39°
2026-05-05 19:25 55.53487 12.51527 1626 ft 154 kts 39°
2026-05-05 19:26 55.54258 12.52708 1400 ft 140 kts 39°
2026-05-05 19:26 55.54958 12.53792 1157 ft 132 kts 39°
2026-05-05 19:26 55.55638 12.54834 951 ft 128 kts 39°
2026-05-05 19:26 55.56299 12.55856 778 ft 125 kts 39°
2026-05-05 19:27 55.56966 12.56890 646 ft 130 kts 39°
2026-05-05 19:27 55.57657 12.57965 506 ft 134 kts 38°
2026-05-05 19:27 55.58366 12.59039 315 ft 134 kts 38°
2026-05-05 19:27 55.59062 12.60114 106 ft 132 kts 37°
2026-05-05 19:28 55.59738 12.61149 17 ft 120 kts 41°
2026-05-05 19:28 55.60248 12.61943 18 ft 72 kts 41°
2026-05-05 19:28 55.60556 12.62419 21 ft 51 kts 41°
2026-05-05 19:28 55.60819 12.62827 20 ft 50 kts 41°
2026-05-05 19:29 55.61066 12.63209 21 ft 38 kts 41°
2026-05-05 19:29 55.61257 12.63504 21 ft 36 kts 41°
2026-05-05 19:29 55.61441 12.63790 19 ft 35 kts 41°
2026-05-05 19:29 55.61589 12.64020 21 ft 19 kts 41°
2026-05-05 19:30 55.61640 12.64163 22 ft 15 kts 84°
2026-05-05 19:30 55.61648 12.64372 18 ft 18 kts 86°
2026-05-05 19:30 55.61668 12.64553 18 ft 13 kts 48°
2026-05-05 19:30 55.61744 12.64647 19 ft 14 kts 32°
2026-05-05 19:31 55.61829 12.64744 20 ft 15 kts 33°
2026-05-05 19:31 55.61920 12.64850 17 ft 16 kts 33°
2026-05-05 19:31 55.62012 12.64956 18 ft 15 kts 33°
2026-05-05 19:31 55.62097 12.65053 19 ft 13 kts 33°
2026-05-05 19:32 55.62143 12.65105 18 ft 2 kts 31°
2026-05-05 19:32 55.62146 12.65109 20 ft 1 kts 32°
2026-05-05 19:32 55.62164 12.65130 18 ft 5 kts 32°
2026-05-05 19:32 55.62204 12.65174 20 ft 8 kts 32°
2026-05-05 19:33 55.62278 12.65200 18 ft 12 kts
2026-05-05 19:33 55.62368 12.65205 18 ft 13 kts 359°
2026-05-05 19:33 55.62464 12.65200 20 ft 14 kts 358°
2026-05-05 19:33 55.62566 12.65196 18 ft 15 kts 359°
2026-05-05 19:34 55.62639 12.65217 18 ft 8 kts 43°
2026-05-05 19:34 55.62647 12.65291 18 ft 7 kts 99°
2026-05-05 19:34 55.62659 12.65355 18 ft 6 kts 41°
2026-05-05 19:35 55.62697 12.65392 18 ft 0 kts 27°